Motor Vehicle Energy Consumption,,,,,,
"Source: US Dept of Energy, Energy Information Administration, available at: http://www.eia.doe.gov/oil_gas/petroleum/info_glance/gasoline.html",,,,,,
Date updated: 6/02,,,,,,
( mbb/d stand for thousands of barrels [m=thousands in roman numeral]),,,,,,

Date,US Weekly Total Gasoline Ending Stocks (Mbbl),US Weekly Total Gasoline Imports (Mbbl/d),US Weekly Finished Gasoline Product Supplied (Mbbl/d),,Date,US Weekly Total Gasoline Ending Stocks (Mbbl)
1/4/91,221194,169,,,1/4/91,221194
1/11/91,217923,522,,,1/11/91,217923
1/18/91,216098,264,,,1/18/91,216098
1/25/91,219581,257,,,1/25/91,219581
2/1/91,222223,184,,,2/1/91,222223
2/8/91,224079,133,6621,,2/8/91,224079
2/15/91,226459,211,6433,,2/15/91,226459
2/22/91,226026,100,6582,,2/22/91,226026
3/1/91,221438,146,7224,,3/1/91,221438
3/8/91,218986,251,6875,,3/8/91,218986
3/15/91,215670,106,6947,,3/15/91,215670
3/22/91,211379,272,7328,,3/22/91,211379
3/29/91,212087,410,6777,,3/29/91,212087
4/5/91,207908,416,7503,,4/5/91,207908
4/12/91,205510,236,6916,,4/12/91,205510
4/19/91,205046,448,7045,,4/19/91,205046
4/26/91,205660,417,6956,,4/26/91,205660
5/3/91,207496,566,6976,,5/3/91,207496
5/10/91,208673,464,7185,,5/10/91,208673
5/17/91,211690,265,6899,,5/17/91,211690
5/24/91,213387,513,7396,,5/24/91,213387
5/31/91,215678,474,7287,,5/31/91,215678
6/7/91,217713,285,7220,,6/7/91,217713
6/14/91,220528,642,7651,,6/14/91,220528
6/21/91,219835,395,7720,,6/21/91,219835
6/28/91,218757,308,7543,,6/28/91,218757
7/5/91,215024,319,7961,,7/5/91,215024
7/12/91,213411,127,7327,,7/12/91,213411
7/19/91,213887,295,7380,,7/19/91,213887
7/26/91,212122,103,7501,,7/26/91,212122
8/2/91,210814,220,7605,,8/2/91,210814
8/9/91,208356,246,7584,,8/9/91,208356
8/16/91,207689,246,7401,,8/16/91,207689
8/23/91,210098,515,7505,,8/23/91,210098
8/30/91,211068,322,7427,,8/30/91,211068
9/6/91,214680,308,6993,,9/6/91,214680
9/13/91,215242,325,7402,,9/13/91,215242
9/20/91,214984,369,7391,,9/20/91,214984
9/27/91,215217,191,7088,,9/27/91,215217
10/4/91,217173,239,6949,,10/4/91,217173
10/11/91,213971,324,7506,,10/11/91,213971
10/18/91,209834,211,7396,,10/18/91,209834
10/25/91,205774,102,7421,,10/25/91,205774
11/1/91,204354,189,7159,,11/1/91,204354
11/8/91,199744,336,7379,,11/8/91,199744
11/15/91,198464,356,7369,,11/15/91,198464
11/22/91,203568,267,6652,,11/22/91,203568
11/29/91,207008,316,6769,,11/29/91,207008
12/6/91,212278,239,6828,,12/6/91,212278
12/13/91,215414,408,7344,,12/13/91,215414
12/20/91,216625,218,7447,,12/20/91,216625
12/27/91,217337,226,7186,,12/27/91,217337
1/3/92,222483,266,6642,,1/3/92,222483
1/10/92,225305,63,6788,,1/10/92,225305
1/17/92,228580,228,6783,,1/17/92,228580
1/24/92,228073,223,7037,,1/24/92,228073
1/31/92,227909,294,7112,,1/31/92,227909
2/7/92,227243,219,7039,,2/7/92,227243
2/14/92,230868,227,6576,,2/14/92,230868
2/21/92,230336,287,7002,,2/21/92,230336
2/28/92,231955,307,6770,,2/28/92,231955
3/6/92,227662,274,7002,,3/6/92,227662
3/13/92,227891,254,6806,,3/13/92,227891
3/20/92,224373,57,7221,,3/20/92,224373
3/27/92,222766,472,7379,,3/27/92,222766
4/3/92,222186,318,7027,,4/3/92,222186
4/10/92,217422,461,7744,,4/10/92,217422
4/17/92,221157,469,6464,,4/17/92,221157
4/24/92,221128,419,7376,,4/24/92,221128
5/1/92,218510,686,7899,,5/1/92,218510
5/8/92,218142,442,7318,,5/8/92,218142
5/15/92,219307,311,7174,,5/15/92,219307
5/22/92,220760,278,7086,,5/22/92,220760
5/29/92,217988,389,7774,,5/29/92,217988
6/5/92,221738,539,7104,,6/5/92,221738
6/12/92,225535,402,7129,,6/12/92,225535
6/19/92,227811,496,7407,,6/19/92,227811
6/26/92,228449,419,7701,,6/26/92,228449
7/3/92,227444,420,7572,,7/3/92,227444
7/10/92,226355,561,7813,,7/10/92,226355
7/17/92,225184,245,7422,,7/17/92,225184
7/24/92,222592,353,7792,,7/24/92,222592
7/31/92,221461,445,7433,,7/31/92,221461
8/7/92,217173,254,7796,,8/7/92,217173
8/14/92,213430,269,7700,,8/14/92,213430
8/21/92,210106,186,7365,,8/21/92,210106
8/28/92,206548,420,7814,,8/28/92,206548
9/4/92,202427,377,7326,,9/4/92,202427
9/11/92,204731,636,7473,,9/11/92,204731
9/18/92,206719,455,7181,,9/18/92,206719
9/25/92,207727,561,7286,,9/25/92,207727
10/2/92,209718,576,7293,,10/2/92,209718
10/9/92,207854,289,7514,,10/9/92,207854
10/16/92,208652,450,7204,,10/16/92,208652
10/23/92,208033,164,7276,,10/23/92,208033
10/30/92,204650,113,7509,,10/30/92,204650
11/6/92,209557,425,6923,,11/6/92,209557
11/13/92,209701,130,7056,,11/13/92,209701
11/20/92,210574,257,7240,,11/20/92,210574
11/27/92,212692,244,7138,,11/27/92,212692
12/4/92,212367,363,7432,,12/4/92,212367
12/11/92,213282,241,7354,,12/11/92,213282
12/18/92,213169,292,7400,,12/18/92,213169
12/25/92,212969,129,7596,,12/25/92,212969
1/1/93,216561,314,7358,,1/1/93,216561
1/8/93,221306,157,6852,,1/8/93,221306
1/15/93,226954,215,6726,,1/15/93,226954
1/22/93,229754,294,7131,,1/22/93,229754
1/29/93,236128,216,6603,,1/29/93,236128
2/5/93,234121,192,7322,,2/5/93,234121
2/12/93,236870,347,6779,,2/12/93,236870
2/19/93,239134,426,7325,,2/19/93,239134
2/26/93,239086,134,6961,,2/26/93,239086
3/5/93,237243,296,7188,,3/5/93,237243
3/12/93,236477,71,7100,,3/12/93,236477
3/19/93,232213,217,7239,,3/19/93,232213
3/26/93,229323,328,7194,,3/26/93,229323
4/2/93,228289,273,6964,,4/2/93,228289
4/9/93,227603,328,6797,,4/9/93,227603
4/16/93,225814,343,7561,,4/16/93,225814
4/23/93,224438,396,7392,,4/23/93,224438
4/30/93,221834,209,7470,,4/30/93,221834
5/7/93,221330,253,7657,,5/7/93,221330
5/14/93,218162,560,7649,,5/14/93,218162
5/21/93,218431,324,7295,,5/21/93,218431
5/28/93,229887,300,7364,,5/28/93,229887
6/4/93,226781,409,7018,,6/4/93,226781
6/11/93,224637,278,7740,,6/11/93,224637
6/18/93,224796,346,7392,,6/18/93,224796
6/25/93,222719,290,7804,,6/25/93,222719
7/2/93,220348,379,7868,,7/2/93,220348
7/9/93,220802,301,7578,,7/9/93,220802
7/16/93,216794,215,8113,,7/16/93,216794
7/23/93,214341,343,7916,,7/23/93,214341
7/30/93,214965,93,7336,,7/30/93,214965
8/6/93,209070,356,8033,,8/6/93,209070
8/13/93,207716,204,7581,,8/13/93,207716
8/20/93,202045,243,8187,,8/20/93,202045
8/27/93,201221,580,7629,,8/27/93,201221
9/3/93,202354,338,7386,,9/3/93,202354
9/10/93,201269,169,7889,,9/10/93,201269
9/17/93,204378,262,7478,,9/17/93,204378
9/24/93,208036,259,7485,,9/24/93,208036
10/1/93,208245,343,7387,,10/1/93,208245
10/8/93,209116,92,7276,,10/8/93,209116
10/15/93,208432,267,7613,,10/15/93,208432
10/22/93,207949,290,7704,,10/22/93,207949
10/29/93,209067,504,7788,,10/29/93,209067
11/5/93,208140,269,7640,,11/5/93,208140
11/12/93,210759,227,7552,,11/12/93,210759
11/19/93,213301,294,7992,,11/19/93,213301
11/26/93,217591,197,6845,,11/26/93,217591
12/3/93,222584,255,7430,,12/3/93,222584
12/10/93,222110,368,8074,,12/10/93,222110
12/17/93,223106,416,7684,,12/17/93,223106
12/24/93,224655,308,7411,,12/24/93,224655
12/31/93,225013,81,7567,,12/31/93,225013
1/7/94,228804,154,7124,,1/7/94,228804
1/14/94,230806,177,7124,,1/14/94,230806
1/21/94,230603,162,7157,,1/21/94,230603
1/28/94,234542,208,6321,,1/28/94,234542
2/4/94,233869,326,6953,,2/4/94,233869
2/11/94,230508,225,7487,,2/11/94,230508
2/18/94,229691,142,6993,,2/18/94,229691
2/25/94,229471,522,7372,,2/25/94,229471
3/4/94,226080,300,7286,,3/4/94,226080
3/11/94,224966,585,7214,,3/11/94,224966
3/18/94,221918,225,7521,,3/18/94,221918
3/25/94,216977,448,7481,,3/25/94,216977
4/1/94,213868,358,7398,,4/1/94,213868
4/8/94,211837,288,7187,,4/8/94,211837
4/15/94,210367,468,7720,,4/15/94,210367
4/22/94,215827,390,7042,,4/22/94,215827
4/29/94,215173,371,7892,,4/29/94,215173
5/6/94,220806,474,6824,,5/6/94,220806
5/13/94,221215,429,7552,,5/13/94,221215
5/20/94,217833,442,7938,,5/20/94,217833
5/27/94,214405,470,8028,,5/27/94,214405
6/3/94,216725,329,7461,,6/3/94,216725
6/10/94,216815,432,7770,,6/10/94,216815
6/17/94,215440,224,7650,,6/17/94,215440
6/24/94,214928,535,7909,,6/24/94,214928
7/1/94,213577,328,7930,,7/1/94,213577
7/8/94,213607,445,7562,,7/8/94,213607
7/15/94,210786,235,8006,,7/15/94,210786
7/22/94,210340,524,7523,,7/22/94,210340
7/29/94,208515,424,7581,,7/29/94,208515
8/5/94,208802,629,7638,,8/5/94,208802
8/12/94,204759,308,8187,,8/12/94,204759
8/19/94,204822,522,7836,,8/19/94,204822
8/26/94,206501,641,7750,,8/26/94,206501
9/2/94,203398,439,8061,,9/2/94,203398
9/9/94,207682,401,6955,,9/9/94,207682
9/16/94,207967,312,7601,,9/16/94,207967
9/23/94,207262,304,7763,,9/23/94,207262
9/30/94,208167,315,7733,,9/30/94,208167
10/7/94,208597,451,7515,,10/7/94,208597
10/14/94,206013,280,7562,,10/14/94,206013
10/21/94,202644,321,8143,,10/21/94,202644
10/28/94,197671,160,8204,,10/28/94,197671
11/4/94,200812,331,7432,,11/4/94,200812
11/11/94,202319,220,7377,,11/11/94,202319
11/18/94,206074,588,7929,,11/18/94,206074
11/25/94,208845,170,7431,,11/25/94,208845
12/2/94,214685,176,7593,,12/2/94,214685
12/9/94,212280,368,8229,,12/9/94,212280
12/16/94,212555,248,7933,,12/16/94,212555
12/23/94,210269,285,8278,,12/23/94,210269
12/30/94,210379,284,7718,,12/30/94,210379
1/6/95,213545,110,7134,,1/6/95,213545
1/13/95,215577,274,7534,,1/13/95,215577
1/20/95,217341,178,7260,,1/20/95,217341
1/27/95,220092,186,6976,,1/27/95,220092
2/3/95,222808,109,7267,,2/3/95,222808
2/10/95,224086,291,7132,,2/10/95,224086
2/17/95,225627,236,7398,,2/17/95,225627
2/24/95,224867,284,7670,,2/24/95,224867
3/3/95,226427,182,7194,,3/3/95,226427
3/10/95,225052,445,7548,,3/10/95,225052
3/17/95,221863,346,7834,,3/17/95,221863
3/24/95,219388,347,7797,,3/24/95,219388
3/31/95,212188,331,8195,,3/31/95,212188
4/7/95,211126,249,7588,,4/7/95,211126
4/14/95,209230,173,7543,,4/14/95,209230
4/21/95,207445,354,8156,,4/21/95,207445
4/28/95,208167,335,7731,,4/28/95,208167
5/5/95,208961,264,7539,,5/5/95,208961
5/12/95,209092,435,8052,,5/12/95,209092
5/19/95,207135,612,8183,,5/19/95,207135
5/26/95,209982,340,7797,,5/26/95,209982
6/2/95,208602,313,8460,,6/2/95,208602
6/9/95,207887,330,8055,,6/9/95,207887
6/16/95,210280,485,7971,,6/16/95,210280
6/23/95,208332,508,8489,,6/23/95,208332
6/30/95,207619,313,8238,,6/30/95,207619
7/7/95,207854,327,7996,,7/7/95,207854
7/14/95,208280,314,7866,,7/14/95,208280
7/21/95,207955,419,8483,,7/21/95,207955
7/28/95,207406,477,8213,,7/28/95,207406
8/4/95,204700,293,8402,,8/4/95,204700
8/11/95,203559,168,7628,,8/11/95,203559
8/18/95,199666,374,8411,,8/18/95,199666
8/25/95,196058,200,8206,,8/25/95,196058
9/1/95,197186,415,7825,,9/1/95,197186
9/8/95,196620,349,8078,,9/8/95,196620
9/15/95,194930,162,8249,,9/15/95,194930
9/22/95,196796,331,7821,,9/22/95,196796
9/29/95,202806,273,7257,,9/29/95,202806
10/6/95,201137,408,8106,,10/6/95,201137
10/13/95,198720,377,7879,,10/13/95,198720
10/20/95,199377,304,7712,,10/20/95,199377
10/27/95,197584,319,8103,,10/27/95,197584
11/3/95,195596,146,7449,,11/3/95,195596
11/10/95,190148,324,8477,,11/10/95,190148
11/17/95,192278,480,8021,,11/17/95,192278
11/24/95,193076,204,7840,,11/24/95,193076
12/1/95,196904,263,7439,,12/1/95,196904
12/8/95,196587,357,7949,,12/8/95,196587
12/15/95,198690,225,7489,,12/15/95,198690
12/22/95,197873,364,8115,,12/22/95,197873
12/29/95,203744,292,7035,,12/29/95,203744
1/5/96,203560,285,7958,,1/5/96,203560
1/12/96,205546,462,7513,,1/12/96,205546
1/19/96,210659,575,6949,,1/19/96,210659
1/26/96,211887,310,7393,,1/26/96,211887
2/2/96,214405,631,7513,,2/2/96,214405
2/9/96,213627,459,7520,,2/9/96,213627
2/16/96,212443,448,7868,,2/16/96,212443
2/23/96,210443,248,7826,,2/23/96,210443
3/1/96,213605,483,7338,,3/1/96,213605
3/8/96,209769,364,7877,,3/8/96,209769
3/15/96,209171,561,7757,,3/15/96,209171
3/22/96,205883,331,7900,,3/22/96,205883
3/29/96,203802,298,7568,,3/29/96,203802
4/5/96,201988,365,7280,,4/5/96,201988
4/12/96,201051,603,7804,,4/12/96,201051
4/19/96,203880,506,7433,,4/19/96,203880
4/26/96,204218,603,8079,,4/26/96,204218
5/3/96,204185,270,7592,,5/3/96,204185
5/10/96,202692,530,8267,,5/10/96,202692
5/17/96,204906,465,7512,,5/17/96,204906
5/24/96,205722,612,8080,,5/24/96,205722
5/31/96,206134,255,7836,,5/31/96,206134
6/7/96,205584,441,7946,,6/7/96,205584
6/14/96,205494,504,7957,,6/14/96,205494
6/21/96,206541,585,7956,,6/21/96,206541
6/28/96,202987,464,8563,,6/28/96,202987
7/5/96,201677,382,8015,,7/5/96,201677
7/12/96,200373,370,7968,,7/12/96,200373
7/19/96,198977,397,8152,,7/19/96,198977
7/26/96,197609,295,8067,,7/26/96,197609
8/2/96,196821,567,8279,,8/2/96,196821
8/9/96,198222,268,7722,,8/9/96,198222
8/16/96,198433,321,7818,,8/16/96,198433
8/23/96,196254,544,8364,,8/23/96,196254
8/30/96,192908,631,8369,,8/30/96,192908
9/6/96,191733,385,7843,,9/6/96,191733
9/13/96,192000,259,7537,,9/13/96,192000
9/20/96,193526,582,8000,,9/20/96,193526
9/27/96,197717,685,7619,,9/27/96,197717
10/4/96,197019,526,7935,,10/4/96,197019
10/11/96,194410,382,7637,,10/11/96,194410
10/18/96,190525,390,7958,,10/18/96,190525
10/25/96,189283,490,7991,,10/25/96,189283
11/1/96,191956,632,7682,,11/1/96,191956
11/8/96,190180,278,7804,,11/8/96,190180
11/15/96,188595,481,8073,,11/15/96,188595
11/22/96,187261,270,7883,,11/22/96,187261
11/29/96,190483,309,7370,,11/29/96,190483
12/6/96,194748,466,7706,,12/6/96,194748
12/13/96,191420,434,8355,,12/13/96,191420
12/20/96,191053,353,8051,,12/20/96,191053
12/27/96,192014,367,7740,,12/27/96,192014
1/3/97,198239,588,7122,,1/3/97,198239
1/10/97,199994,401,7440,,1/10/97,199994
1/17/97,201457,438,7408,,1/17/97,201457
1/24/97,203639,468,7265,,1/24/97,203639
1/31/97,206951,376,7125,,1/31/97,206951
2/7/97,210991,545,7013,,2/7/97,210991
2/14/97,209302,455,7530,,2/14/97,209302
2/21/97,205464,418,8011,,2/21/97,205464
2/28/97,203206,634,7779,,2/28/97,203206
3/7/97,203693,693,7417,,3/7/97,203693
3/14/97,199745,736,8125,,3/14/97,199745
3/21/97,198774,668,7729,,3/21/97,198774
3/28/97,196930,430,7492,,3/28/97,196930
4/4/97,195697,884,8115,,4/4/97,195697
4/11/97,195928,468,7791,,4/11/97,195928
4/18/97,195927,480,7914,,4/18/97,195927
4/25/97,196025,521,7922,,4/25/97,196025
5/2/97,193561,705,8224,,5/2/97,193561
5/9/97,198261,657,7765,,5/9/97,198261
5/16/97,198672,705,8253,,5/16/97,198672
5/23/97,199831,705,8088,,5/23/97,199831
5/30/97,200728,564,8154,,5/30/97,200728
6/6/97,203327,482,7590,,6/6/97,203327
6/13/97,205177,761,8009,,6/13/97,205177
6/20/97,205512,708,8557,,6/20/97,205512
6/27/97,204006,356,8234,,6/27/97,204006
7/4/97,203747,657,8489,,7/4/97,203747
7/11/97,199751,346,8606,,7/11/97,199751
7/18/97,197484,492,8595,,7/18/97,197484
7/25/97,193695,465,8600,,7/25/97,193695
8/1/97,190575,555,8290,,8/1/97,190575
8/8/97,189078,368,8253,,8/8/97,189078
8/15/97,186197,633,8539,,8/15/97,186197
8/22/97,187035,333,7922,,8/22/97,187035
8/29/97,185563,535,8695,,8/29/97,185563
9/5/97,187167,375,8053,,9/5/97,187167
9/12/97,189628,552,8215,,9/12/97,189628
9/19/97,194289,479,7746,,9/19/97,194289
9/26/97,195544,420,8140,,9/26/97,195544
10/3/97,197648,604,8379,,10/3/97,197648
10/10/97,196796,230,8221,,10/10/97,196796
10/17/97,196969,458,8315,,10/17/97,196969
10/24/97,197561,443,7741,,10/24/97,197561
10/31/97,197629,569,8355,,10/31/97,197629
11/7/97,196540,354,8025,,11/7/97,196540
11/14/97,197638,206,7793,,11/14/97,197638
11/21/97,196590,355,8043,,11/21/97,196590
11/28/97,199440,502,7578,,11/28/97,199440
12/5/97,198579,290,8437,,12/5/97,198579
12/12/97,201916,380,7955,,12/12/97,201916
12/19/97,201609,383,8151,,12/19/97,201609
12/26/97,204930,418,8201,,12/26/97,204930
1/2/98,210220,333,7832,,1/2/98,210220
1/9/98,216176,449,7673,,1/9/98,216176
1/16/98,217925,350,7779,,1/16/98,217925
1/23/98,217464,458,7940,,1/23/98,217464
1/30/98,217934,411,7670,,1/30/98,217934
2/6/98,220625,373,7673,,2/6/98,220625
2/13/98,218239,303,8201,,2/13/98,218239
2/20/98,218785,523,8005,,2/20/98,218785
2/27/98,219852,430,7662,,2/27/98,219852
3/6/98,218013,366,7744,,3/6/98,218013
3/13/98,214200,490,8103,,3/13/98,214200
3/20/98,215334,416,7753,,3/20/98,215334
3/27/98,214760,279,7996,,3/27/98,214760
4/3/98,210823,636,8992,,4/3/98,210823
4/10/98,210377,590,8031,,4/10/98,210377
4/17/98,211207,520,8303,,4/17/98,211207
4/24/98,212209,505,8118,,4/24/98,212209
5/1/98,212269,509,8190,,5/1/98,212269
5/8/98,216119,650,7503,,5/8/98,216119
5/15/98,213223,590,8524,,5/15/98,213223
5/22/98,215208,612,8337,,5/22/98,215208
5/29/98,218181,612,8205,,5/29/98,218181
6/5/98,219566,852,8312,,6/5/98,219566
6/12/98,220053,551,8103,,6/12/98,220053
6/19/98,222740,561,8160,,6/19/98,222740
6/26/98,222381,730,8644,,6/26/98,222381
7/3/98,218243,489,8755,,7/3/98,218243
7/10/98,221489,552,8234,,7/10/98,221489
7/17/98,218840,525,8749,,7/17/98,218840
7/24/98,219060,355,8125,,7/24/98,219060
7/31/98,215752,574,8997,,7/31/98,215752
8/7/98,212407,396,8317,,8/7/98,212407
8/14/98,210064,715,8981,,8/14/98,210064
8/21/98,208848,496,8288,,8/21/98,208848
8/28/98,209179,473,8607,,8/28/98,209179
9/4/98,207008,410,8713,,9/4/98,207008
9/11/98,205691,462,8722,,9/11/98,205691
9/18/98,208649,473,7873,,9/18/98,208649
9/25/98,207493,478,8359,,9/25/98,207493
10/2/98,207114,652,8058,,10/2/98,207114
10/9/98,199486,412,8797,,10/9/98,199486
10/16/98,201383,445,8049,,10/16/98,201383
10/23/98,199734,472,8099,,10/23/98,199734
10/30/98,200204,697,8360,,10/30/98,200204
11/6/98,201825,470,8195,,11/6/98,201825
11/13/98,206343,459,7711,,11/13/98,206343
11/20/98,205683,587,8381,,11/20/98,205683
11/27/98,205697,481,8313,,11/27/98,205697
12/4/98,208189,441,8162,,12/4/98,208189
12/11/98,210252,711,8314,,12/11/98,210252
12/18/98,208330,493,8588,,12/18/98,208330
12/25/98,209868,455,8153,,12/25/98,209868
1/1/99,210839,640,8519,,1/1/99,210839
1/8/99,217574,197,7385,,1/8/99,217574
1/15/99,221987,546,7810,,1/15/99,221987
1/22/99,220885,382,8186,,1/22/99,220885
1/29/99,223083,540,7866,,1/29/99,223083
2/5/99,228189,441,7532,,2/5/99,228189
2/12/99,226045,549,8756,,2/12/99,226045
2/19/99,229300,493,7948,,2/19/99,229300
2/26/99,227413,464,8316,,2/26/99,227413
3/5/99,226726,431,8273,,3/5/99,226726
3/12/99,222905,473,8451,,3/12/99,222905
3/19/99,219788,413,8367,,3/19/99,219788
3/26/99,214520,514,8337,,3/26/99,214520
4/2/99,214306,522,7959,,4/2/99,214306
4/9/99,217386,638,7878,,4/9/99,217386
4/16/99,216866,793,8066,,4/16/99,216866
4/23/99,214741,799,8923,,4/23/99,214741
4/30/99,218406,603,7825,,4/30/99,218406
5/7/99,222885,773,8059,,5/7/99,222885
5/14/99,221972,677,8761,,5/14/99,221972
5/21/99,221589,524,8275,,5/21/99,221589
5/28/99,223026,704,8401,,5/28/99,223026
6/4/99,226048,430,8193,,6/4/99,226048
6/11/99,221080,370,8827,,6/11/99,221080
6/18/99,220647,875,8522,,6/18/99,220647
6/25/99,217966,787,9045,,6/25/99,217966
7/2/99,214637,684,9076,,7/2/99,214637
7/9/99,211022,385,8679,,7/9/99,211022
7/16/99,208902,513,8622,,7/16/99,208902
7/23/99,205424,452,8639,,7/23/99,205424
7/30/99,204179,498,8537,,7/30/99,204179
8/6/99,201096,478,8644,,8/6/99,201096
8/13/99,202026,602,8519,,8/13/99,202026
8/20/99,202168,538,8415,,8/20/99,202168
8/27/99,200462,546,8810,,8/27/99,200462
9/3/99,198532,498,8778,,9/3/99,198532
9/10/99,200464,540,8593,,9/10/99,200464
9/17/99,201304,575,8504,,9/17/99,201304
9/24/99,199923,596,8865,,9/24/99,199923
10/1/99,201114,448,8557,,10/1/99,201114
10/8/99,203234,581,8433,,10/8/99,203234
10/15/99,202656,561,8406,,10/15/99,202656
10/22/99,199785,550,8521,,10/22/99,199785
10/29/99,197816,589,8532,,10/29/99,197816
11/5/99,195514,235,8333,,11/5/99,195514
11/12/99,191450,434,8416,,11/12/99,191450
11/19/99,190202,398,8404,,11/19/99,190202
11/26/99,191068,581,8416,,11/26/99,191068
12/3/99,196648,339,7670,,12/3/99,196648
12/10/99,195581,513,8557,,12/10/99,195581
12/17/99,194295,245,8638,,12/17/99,194295
12/24/99,192797,451,8590,,12/24/99,192797
12/31/99,191997,680,8851,,12/31/99,191997
1/7/00,194173,470,7907,,1/7/00,194173
1/14/00,198240,480,7543,,1/14/00,198240
1/21/00,200815,555,7919,,1/21/00,200815
1/28/00,201447,884,8385,,1/28/00,201447
2/4/00,200937,430,7642,,2/4/00,200937
2/11/00,199593,451,8375,,2/11/00,199593
2/18/00,196688,533,8524,,2/18/00,196688
2/25/00,196523,668,8072,,2/25/00,196523
3/3/00,200970,594,7608,,3/3/00,200970
3/10/00,198819,523,8662,,3/10/00,198819
3/17/00,199255,503,8201,,3/17/00,199255
3/24/00,201120,724,8384,,3/24/00,201120
3/31/00,203808,315,7896,,3/31/00,203808
4/7/00,203566,522,8655,,4/7/00,203566
4/14/00,202022,414,8557,,4/14/00,202022
4/21/00,200684,600,8616,,4/21/00,200684
4/28/00,202506,701,8302,,4/28/00,202506
5/5/00,200770,533,8679,,5/5/00,200770
5/12/00,202479,443,8242,,5/12/00,202479
5/19/00,203561,804,8408,,5/19/00,203561
5/26/00,201075,615,9075,,5/26/00,201075
6/2/00,201348,722,8863,,6/2/00,201348
6/9/00,202699,344,8403,,6/9/00,202699
6/16/00,202768,632,8895,,6/16/00,202768
6/23/00,204280,550,8475,,6/23/00,204280
6/30/00,204522,602,8620,,6/30/00,204522
7/7/00,205147,338,8519,,7/7/00,205147
7/14/00,205638,518,8844,,7/14/00,205638
7/21/00,206907,348,8361,,7/21/00,206907
7/28/00,206253,587,8614,,7/28/00,206253
8/4/00,204582,480,8759,,8/4/00,204582
8/11/00,202442,302,8813,,8/11/00,202442
8/18/00,201200,438,8786,,8/18/00,201200
8/25/00,196372,421,8960,,8/25/00,196372
9/1/00,195498,484,8644,,9/1/00,195498
9/8/00,191795,377,8573,,9/8/00,191795
9/15/00,187566,521,8814,,9/15/00,187566
9/22/00,190559,486,8153,,9/22/00,190559
9/29/00,195621,497,7819,,9/29/00,195621
10/6/00,195840,341,8340,,10/6/00,195840
10/13/00,193261,698,8663,,10/13/00,193261
10/20/00,192240,521,8604,,10/20/00,192240
10/27/00,188097,310,8942,,10/27/00,188097
11/3/00,186147,719,8780,,11/3/00,186147
11/10/00,189003,453,8216,,11/10/00,189003
11/17/00,188941,490,8419,,11/17/00,188941
11/24/00,191190,487,8063,,11/24/00,191190
12/1/00,195234,590,8233,,12/1/00,195234
12/8/00,196568,518,8711,,12/8/00,196568
12/15/00,198983,884,8475,,12/15/00,198983
12/22/00,196401,347,8400,,12/22/00,196401
12/29/00,193771,562,8693,,12/29/00,193771
1/5/01,195663,694,7825,,1/5/01,195663
1/12/01,198713,712,8225,,1/12/01,198713
1/19/01,200703,636,7894,,1/19/01,200703
1/26/01,205882,740,7338,,1/26/01,205882
2/2/01,203783,721,8589,,2/2/01,203783
2/9/01,202920,592,8032,,2/9/01,202920
2/16/01,204595,482,7850,,2/16/01,204595
2/23/01,204546,580,8187,,2/23/01,204546
3/2/01,203021,891,8489,,3/2/01,203021
3/9/01,201582,563,8425,,3/9/01,201582
3/16/01,198193,325,8484,,3/16/01,198193
3/23/01,196272,664,8475,,3/23/01,196272
3/30/01,193035,518,8507,,3/30/01,193035
4/6/01,193855,692,8306,,4/6/01,193855
4/13/01,192831,496,8438,,4/13/01,192831
4/20/01,193913,678,8708,,4/20/01,193913
4/27/01,198975,863,8404,,4/27/01,198975
5/4/01,200025,786,8665,,5/4/01,200025
5/11/01,204069,507,8275,,5/11/01,204069
5/18/01,203706,813,8917,,5/18/01,203706
5/25/01,208032,692,8270,,5/25/01,208032
6/1/01,210265,489,8809,,6/1/01,210265
6/8/01,216010,865,8428,,6/8/01,216010
6/15/01,219666,829,8393,,6/15/01,219666
6/22/01,220745,711,8921,,6/22/01,220745
6/29/01,221633,752,9036,,6/29/01,221633
7/6/01,221549,555,8622,,7/6/01,221549
7/13/01,217832,637,9095,,7/13/01,217832
7/20/01,214521,781,9176,,7/20/01,214521
7/27/01,211313,808,9007,,7/27/01,211313
8/3/01,207789,573,8959,,8/3/01,207789
8/10/01,204627,621,8671,,8/10/01,204627
8/17/01,202069,947,9035,,8/17/01,202069
8/24/01,195874,579,8943,,8/24/01,195874
8/31/01,194690,675,8612,,8/31/01,194690
9/7/01,195380,582,8529,,9/7/01,195380
9/14/01,192331,464,8969,,9/14/01,192331
9/21/01,200823,935,7834,,9/21/01,200823
9/28/01,203912,955,8514,,9/28/01,203912
10/5/01,206117,773,8500,,10/5/01,206117
10/12/01,208339,748,8766,,10/12/01,208339
10/19/01,208908,695,8619,,10/19/01,208908
10/26/01,208308,640,8702,,10/26/01,208308
11/2/01,206944,776,8797,,11/2/01,206944
11/9/01,205335,542,8771,,11/9/01,205335
11/16/01,206682,822,8612,,11/16/01,206682
11/23/01,207701,740,8868,,11/23/01,207701
11/30/01,212099,831,8517,,11/30/01,212099
12/7/01,211201,438,8327,,12/7/01,211201
12/14/01,210320,696,8622,,12/14/01,210320
12/21/01,207036,771,8888,,12/21/01,207036
12/28/01,207914,816,8860,,12/28/01,207914
1/4/02,207726,765,8288,,1/4/02,207726